Regional Weather Roundup
Issued by NWS Grand Forks, ND

Home | Current Version | Previous Version | Graphics & Text | Print | Product List | Glossary On
Versions: 1 2 3 4 5 6 7 8 9 10 11 12 13 14 15 16 17 18 19 20 21 22 23 24 25 26 27 28 29 30 31 32 33 34 35 36 37 38 39 40 41 42 43 44 45 46 47 48 49 50
259
ASUS43 KFGF 260531
RWRFGF
PRAIRIE TO PINES  WEATHER ROUNDUP
NATIONAL WEATHER SERVICE EASTERN NORTH DAKOTA/GRAND FORKS ND
1200 AM CDT MON JUN 26 2017

 **SATELLITE DATA USED TO AUGMENT SKY COVER AT AUTOMATED STATIONS**
 *****  WEATHER ACROSS EASTERN NORTH DAKOTA  *****

CITY           SKY/WX    TMP DP  RH WIND       PRES   REMARKS
GRAND FORKS    FAIR      47  42  83 W5        30.20S
GRAND FRKS AFB FAIR      44  42  92 NW3       30.21S
DEVILS LAKE    FAIR      47  41  80 CALM      30.24S
FARGO          FAIR      50  39  66 NW5       30.20S
WAHPETON ARPT  FAIR      54  39  58 N7        30.21R
$$

 ***** WEATHER ACROSS CENTRAL AND WESTERN NORTH DAKOTA  *****

CITY           SKY/WX    TMP DP  RH WIND       PRES   REMARKS
BISMARCK       FAIR      53  46  77 NE5       30.25S
MINOT          FAIR      50  39  66 CALM      30.24S
JAMESTOWN      FAIR      49  41  74 N3        30.23S
MINOT AFB      FAIR      44  39  84 CALM      30.23S
GARRISON         N/A     51  40  65 NE3       30.24S
WILLISTON      FAIR      57  43  59 E3        30.23S
DICKINSON      FAIR      50  39  66 E7        30.23R
HETTINGER      FAIR      55  40  56 E9        30.25S
$$

 *****  OTHER AIRPORT OBSERVATIONS IN OUR AREA  *****

CITY           SKY/WX    TMP DP  RH WIND       PRES   REMARKS
WALHALLA       NOT AVBL
GRAFTON AIRPOR FAIR      52  46  82 W6        30.22S
VALLEY CITY AR FAIR      48  41  76 NW5       30.24S
CANDO          NOT AVBL
CAVALIER APRT  FAIR      48  43  81 W6        30.20S
GWINNER        CLOUDY    50  45  81 CALM      30.22R
SHEYENNE NWR     N/A     51  41  68 N3        29.95S
ROLLA            N/A     45  43  93 CALM      30.25S
 ***** THE ABOVE OBSERVATIONS ARE NON NWS ARE NOT QUALITY
       CONTROLLED AND MAY MIS-REPORT RAIN FOR SNOW...
$$

  *****  WEATHER ACROSS NORTHERN MINNESOTA  *****

CITY           SKY/WX    TMP DP  RH WIND       PRES   REMARKS
FLAG ISLAND    FAIR      52  46  82 W9        30.14S
WARROAD        FAIR      46  43  87 W5        30.17S
ROSEAU         FAIR      48  45  87 W7        30.18S
HALLOCK        FAIR      46  43  87 CALM      30.20S
THF RVR FALLS  FAIR      46  44  93 NW3       30.20S
BAUDETTE       FAIR      47  44  90 W7        30.15S
WASKISH        FAIR      45  43  93 NW7       30.16S FOG
CROOKSTON      FAIR      43  41  93 NW5       30.21R
STEPHEN NDAWN    N/A     46  45  93 W3          N/A
GREENBUSH NDAW   N/A     46  45  93 SW3         N/A
$$
  *****  WEATHER ACROSS CENTRAL AND WEST MINNESOTA  *****

CITY           SKY/WX    TMP DP  RH WIND       PRES   REMARKS
FOSSTON        FAIR      43  39  87 CALM      30.20R
BEMIDJI        FAIR      41  40  95 CALM      30.17R
PARK RAPIDS    FAIR      46  40  79 NW5       30.17R
ELBOW LAKE     FAIR      52  47  84 NW3       30.19S
WADENA         FAIR      46  41  81 CALM      30.17S
DETROIT LAKES  FAIR      50  45  81 NW5       30.20S
MOORHEAD       FAIR      46  39  76 N3        30.21S
FERGUS FALLS   FAIR      52  43  71 N6        30.18R
MORRIS MN      FAIR      52  48  87 NW5       30.18R
STAPLES        FAIR      46  41  81 NW5       30.17R
$$
  *****  WEATHER ELSEWHERE ACROSS MINNESOTA  *****

CITY           SKY/WX    TMP DP  RH WIND       PRES   REMARKS
DULUTH         FAIR      45  43  93 NW5       30.10S
INTRNTL FALLS  FAIR      45  43  93 W3        30.13S
ELY            DRIZZLE   46  45  93 CALM      30.11R
CLOQUET        FAIR      43  39  87 W3        30.12S
WHEATON        FAIR      52  48  87 CALM      30.22R
BRAINERD       FAIR      51  43  74 NW5       30.15S
HIBBING        FAIR      38  38 100 CALM      30.12S FOG
ALEXANDRIA     FAIR      52  44  74 NW6       30.18S
SAINT CLOUD    FAIR      49  44  83 NW3       30.15S
MINNEAPOLIS    FAIR      59  44  57 N7        30.13S
$$

  *****  WEATHER ACROSS SOUTH DAKOTA  *****

CITY           SKY/WX    TMP DP  RH WIND       PRES   REMARKS
SIOUX FALLS    CLOUDY    54  52  93 NE3       30.20F
BROOKINGS      FAIR      53  49  86 W3        30.22R
WATERTOWN      FAIR      50  46  86 CALM      30.20S
HURON          CLOUDY    57  51  80 E3        30.21R
SISSETON         N/A     52  46  80 NW9       30.19R
ABERDEEN       FAIR      48  45  89 NW3       30.22S
MITCHELL       LGT RAIN  59  52  77 SE9       30.20R
PIERRE         FAIR      55  45  68 E7        30.20R
MOBRIDGE       FAIR      57  43  59 E10       30.21R
RAPID CITY     FAIR      59  38  45 E9        30.24R
$$

  *****  SOME WEATHER IN NEARBY STATES *****

CITY           SKY/WX    TMP DP  RH WIND       PRES   REMARKS
GLASGOW MT     FAIR      61  36  39 E12       30.18F
GREAT FALLS MT FAIR      65  42  43 E13       30.15S
CHEYENNE WY    FAIR      56  48  74 S7        30.36S
SCOTTSBLUFF NE FAIR      63  51  65 S7        30.23S
OMAHA NE       FAIR      63  46  54 E5        30.19S
DES MOINES IA  FAIR      63  45  51 CALM      30.20R
DAVENPORT IA   FAIR      54  49  83 SW5       30.16S
CHICAGO IL     MOCLDY    60  49  66 NW6       30.11S
EAU CLAIRE WI  FAIR      46  46 100 CALM      30.10S
LA CROSSE WI   FAIR      59  50  72 CALM      30.11R
$$

  *****  SOME NATIONAL WEATHER *****

CITY           SKY/WX    TMP DP  RH WIND       PRES   REMARKS
LA GUARDIA NY  FAIR      72  53  51 N14G23    29.98R
RALEIGH NC     FAIR      68  64  87 CALM      30.11S
ATLANTA GA     FAIR      67  61  81 NW8       30.15F
NEW ORLEANS LA MOCLDY    79  71  76 NE9       30.13R
OKLAHOMA CITY  MOCLDY    72  55  55 E8        30.19R
ALBUQUERQUE NM MOCLDY    70  47  43 SE6       30.27S
SALT LAKE CITY FAIR      77  50  38 SW6       30.09R
LOS ANGELES CA FAIR      67  60  78 SW5       29.89R
BOISE ID       FAIR      77  43  29 SE8       29.96S
SEATTLE WA     MOCLDY    79  51  37 W6        29.87R
$$

*** WEATHER ACROSS MANITOBA...SASKATCHEWAN AND ONTARIO ***
                ***ONTARIO***

CITY           SKY/WX    TMP DP  RH WIND       PRES   REMARKS
GERALDTON      PTCLDY    41  36  81 CALM      30.01S
THUNDER BAY    LGT RAIN  48  48 100 W7        30.03S
SIOUX LOOKOUT  PTCLDY    48  45  87 NW5       30.07S
TORONTO        MOCLDY    59  52  77 W8        29.97S
BIG TROUT LK   MOCLDY    50  46  87 NW6       29.97R
PICKLE LAKE    NOT AVBL
DRYDEN         MOCLDY    48  46  93 W9        30.09F
KENORA         LGT RAIN  52  45  76 N5        30.14S
$$
                *** MANITOBA***

CITY           SKY/WX    TMP DP  RH WIND       PRES   REMARKS
BRANDON        CLEAR     46  43  87 CALM      30.23R
DAUPHIN        CLEAR     46  43  87 SW8       30.19F
ISLAND LAKE    PTCLDY    50  48  93 CALM      30.07S
PILOT MOUND      N/A     46  43  87 SW2         N/A
THE PAS        PTCLDY    52  45  76 CALM      30.14F
THOMPSON       PTCLDY    45  39  81 CALM      30.08F
WINNIPEG       CLEAR     48  45  87 W9        30.18S
LYNN LAKE      CLEAR     57  39  51 W8        30.08F
CHURCHILL      MOCLDY    54  45  71 SW7       29.92F
GILLAM         MOCLDY    48  43  81 SW3       30.03F
$$
                ***SASKATCHEWAN***

CITY           SKY/WX    TMP DP  RH WIND       PRES   REMARKS
ESTEVAN        PTCLDY    50  43  76 E7        30.25R
KINDERSLEY     PTCLDY    55  45  67 SE12      30.17F
LLOYDMINSTER   CLEAR     59  45  58 SE14G20   30.13F
PRINCE ALBERT  PTCLDY    50  43  76 CALM      30.21S
REGINA         CLEAR     54  37  54 NE7       30.25F
YORKTON        CLEAR     54  39  58 W7        30.23S
N. BATTLEFORD  CLEAR     50  41  71 E9        30.20S
LA RONGE       CLEAR     52  41  66 CALM      30.15F
SASKATOON      PTCLDY    54  41  62 SE8       30.22S
SWIFT CURRENT  CLEAR     50  41  71 SE8       30.21S
$$
NOTE: THESE ARE AUTOMATED STATIONS WITH LIMITED QUALITY CONTROL
      "FAIR" INDICATES FEW OR NO CLOUDS BELOW 12,000 FEET WITH NO
      SIGNIFICANT WEATHER AND/OR OBSTRUCTIONS TO VISIBILITY.
      SKY/WX - SKY CONDITION AND SIGNIFICANT WEATHER.
      TMP - AIR TEMPERATURE.    DP   - DEWPOINT TEMPERATURE.
      RH  - RELATIVE HUMIDITY.  PRES - PRESSURE.
      HX  - HEAT INDEX.         WCI  - WIND CHILL INDEX.
$




USA.gov is the U.S. government's official web portal to all federal, state and local government web resources and services.